This demonstration page uses our WeatherBlox Daily Observations layout. Learn more.

Left ArrowRight Arrow

Hourly Observations for April 28, 2015

Temp ( °F °C ) Dew Point ( °F °C ) Humidity (%) Winds ( mph kmh ) Pressure ( in mb ) Visibility ( mi km ) Precip ( " mm )
12:53 am 00:53 Clear 43 6.1 36 2.2 76 76 NW 7 11 30.22 1023 10 16 0.00 0.00
1:53 am 01:53 Clear 44 6.7 35 1.7 71 71 Calm 30.21 1023 10 16 0.00 0.00
2:53 am 02:53 Clear 44 6.7 33 0.6 65 65 Calm 30.20 1023 10 16 0.00 0.00
3:53 am 03:53 Clear 43 6.1 35 1.7 74 74 NNW 13 20 30.22 1023 10 16 0.00 0.00
4:53 am 04:53 Clear 43 6.1 37 2.8 80 80 N 9 15 30.22 1023 10 16 0.00 0.00
5:53 am 05:53 Clear 42 5.6 39 3.9 89 89 NNW 10 17 30.24 1024 9 14 0.00 0.00
6:53 am 06:53 Sunny with Mist and Fog 42 5.6 40 4.4 92 92 N 8 13 30.25 1024 6 10 0.00 0.00
7:53 am 07:53 Sunny with Mist and Fog 45 7.2 41 5 86 86 N 10 17 30.27 1025 6 10 0.00 0.00
8:53 am 08:53 Sunny 48 8.9 43 6.1 83 83 N 14 22 30.27 1025 7 11 0.00 0.00
9:53 am 09:53 Sunny 52 11.1 44 6.7 75 75 NNW 14 22 30.28 1025 10 16 0.00 0.00
10:53 am 10:53 Sunny 56 13.3 46 7.8 70 70 N 10 17 30.26 1025 10 16 0.00 0.00
11:53 am 11:53 Sunny 60 15.6 46 7.8 60 60 NNW 14 22 30.26 1025 10 16 0.00 0.00
12:53 pm 12:53 Sunny 64 17.8 45 7.2 50 50 N 16 26 30.23 1024 10 16 0.00 0.00
1:53 pm 13:53 Sunny 65 18.3 45 7.2 49 49 NNE 12 19 30.19 1022 10 16 0.00 0.00
2:53 pm 14:53 Sunny 68 20 42 5.6 39 39 N 15 24 30.17 1022 10 16 0.00 0.00
3:53 pm 15:53 Partly Cloudy 69 20.6 42 5.6 38 38 NNE 9 15 30.15 1021 10 16 0.00 0.00
4:53 pm 16:53 Mostly Cloudy 68 20 42 5.6 39 39 NNW 13 20 30.13 1020 10 16 0.00 0.00
5:53 pm 17:53 Partly Cloudy 68 20 42 5.6 39 39 N 10 17 30.12 1020 10 16 0.00 0.00
6:53 pm 18:53 Sunny 67 19.4 40 4.4 37 37 NNW 14 22 30.11 1020 10 16 0.00 0.00
7:53 pm 19:53 Sunny 63 17.2 42 5.6 47 47 N 9 15 30.11 1020 10 16 0.00 0.00
8:53 pm 20:53 Clear 56 13.3 43 6.1 62 62 NNW 7 11 30.12 1020 10 16 0.00 0.00
9:53 pm 21:53 Clear 53 11.7 42 5.6 66 66 NNW 7 11 30.13 1020 10 16 0.00 0.00
10:53 pm 22:53 Clear 50 10 41 5 71 71 N 7 11 30.14 1021 10 16 0.00 0.00
11:53 pm 23:53 Clear 49 9.4 39 3.9 69 69 NNE 6 9 30.13 1020 10 16 0.00 0.00

Powered by AerisWeather